IW9CSJ-13 Weather Reports


time (UTC)temp
C
wind
direction
speed
KPH
gust
KPH
rain 1hr
cm
rain 24hr
cm
rain mn
cm
humidity
%
barometer
mb
20260906080021 31 142 4.8 11.3 0.00 0.00 0.00 43 1020.3
20260906075521 31 122 4.8 8.0 0.00 0.00 0.00 44 1020.1
20260906075122 31 122 4.8 8.0 0.00 0.00 0.00 44 1020.1
20260906074520 31 138 3.2 9.7 0.00 0.00 0.00 43 1020.2
20260906074039 31 136 4.8 8.0 0.00 0.00 0.00 43 1020.1
20260906074020 30 147 3.2 9.7 0.00 0.00 0.00 43 1020.1
20260906073518 30 147 3.2 9.7 0.00 0.00 0.00 43 1020.1
20260906073022 30 150 4.8 9.7 0.00 0.00 0.00 43 1020.0
20260906072517 30 113 1.6 6.4 0.00 0.00 0.00 44 1020.0
20260906072017 30 129 1.6 4.8 0.00 0.00 0.00 45 1019.9
20260906071604 30 145 3.2 9.7 0.00 0.00 0.00 44 1019.9
20260906071020 30 138 3.2 9.7 0.00 0.00 0.00 43 1019.8
20260906071016 30 136 3.2 9.7 0.00 0.00 0.00 43 1019.9
20260906070539 30 138 3.2 9.7 0.00 0.00 0.00 43 1019.8
20260906070021 30 147 3.2 8.0 0.00 0.00 0.00 44 1019.7
20260906065520 30 102 1.6 4.8 0.00 0.00 0.00 45 1019.7
20260906065020 29 64 1.6 3.2 0.00 0.00 0.00 46 1019.5
20260906064541 29 45 1.6 6.4 0.00 0.00 0.00 46 1019.5
20260906064022 29 40 1.6 6.4 0.00 0.00 0.00 46 1019.5
20260906063540 29 61 1.6 3.2 0.00 0.00 0.00 47 1019.4
20260906063021 29 23 0.0 3.2 0.00 0.00 0.00 48 1019.3
20260906063017 29 23 0.0 3.2 0.00 0.00 0.00 48 1019.3
20260906062515 28 0 0.0 1.6 0.00 0.00 0.00 49 1019.2
20260906062026 28 0 0.0 1.6 0.00 0.00 0.00 49 1019.1
20260906061515 28 0 0.0 3.2 0.00 0.00 0.00 50 1019.1
20260906061022 28 0 0.0 4.8 0.00 0.00 0.00 50 1019.0
20260906060518 28 0 1.6 4.8 0.00 0.00 0.00 50 1019.0
20260906060018 28 0 0.0 4.8 0.00 0.00 0.00 50 1018.9
20260906055515 28 0.0 0.0 0.00 0.00 0.00 49 1018.8
20260906055059 27 338 0.0 3.2 0.00 0.00 0.00 49 1018.7
20260906054521 27 338 0.0 1.6 0.00 0.00 0.00 49 1018.6
20260906054023 27 338 0.0 3.2 0.00 0.00 0.00 50 1018.5
20260906053521 26 0.0 0.0 0.00 0.00 0.00 51 1018.4
20260906053021 26 338 1.6 4.8 0.00 0.00 0.00 51 1018.4
20260906052515 25 335 3.2 6.4 0.00 0.00 0.00 51 1018.4
20260906052020 25 315 1.6 6.4 0.00 0.00 0.00 50 1018.3
20260906051522 25 308 3.2 4.8 0.00 0.00 0.00 50 1018.3
20260906051021 25 293 1.6 3.2 0.00 0.00 0.00 52 1018.3
20260906050535 25 289 1.6 3.2 0.00 0.00 0.00 50 1018.3
20260906050025 25 0.0 0.0 0.00 0.00 0.00 47 1018.3
20260906045524 25 282 1.6 3.2 0.00 0.00 0.00 46 1018.3
20260906045020 25 0.0 0.0 0.00 0.00 0.00 46 1018.2
20260906044515 25 0.0 0.0 0.00 0.00 0.00 45 1018.1
20260906044016 25 0.0 0.0 0.00 0.00 0.00 46 1018.0
20260906043518 25 285 1.6 6.4 0.00 0.00 0.00 46 1018.1
20260906043024 25 0.0 0.0 0.00 0.00 0.00 47 1018.1
20260906042521 25 0.0 0.0 0.00 0.00 0.00 47 1018.2
20260906042021 25 293 0.0 3.2 0.00 0.00 0.00 47 1018.1
20260906041523 25 293 0.0 3.2 0.00 0.00 0.00 47 1018.1
20260906041015 25 293 0.0 3.2 0.00 0.00 0.00 49 1017.9
20260906040517 25 0.0 0.0 0.00 0.00 0.00 49 1018.0
20260906040016 25 0.0 0.0 0.00 0.00 0.00 49 1018.2
20260906035525 25 0.0 0.0 0.00 0.00 0.00 50 1018.2
20260906035025 25 293 0.0 4.8 0.00 0.00 0.00 49 1018.1
20260906034540 25 297 3.2 8.0 0.00 0.00 0.00 50 1018.1
20260906034036 25 293 1.6 3.2 0.00 0.00 0.00 50 1018.0
20260906033544 25 293 1.6 4.8 0.00 0.00 0.00 51 1018.0
20260906033020 25 0.0 0.0 0.00 0.00 0.00 50 1018.0
20260906032516 25 296 1.6 6.4 0.00 0.00 0.00 50 1018.0
20260906032024 25 293 1.6 4.8 0.00 0.00 0.00 50 1017.9
20260906031518 25 293 1.6 4.8 0.00 0.00 0.00 51 1018.0
20260906031022 25 0.0 0.0 0.00 0.00 0.00 51 1018.0
20260906030524 25 293 1.6 4.8 0.00 0.00 0.00 51 1017.9
20260906030144 25 293 1.6 4.8 0.00 0.00 0.00 49 1018.0
20260906025520 25 290 1.6 6.4 0.00 0.00 0.00 47 1018.1
20260906025016 25 0.0 0.0 0.00 0.00 0.00 47 1018.1
20260906024521 25 0.0 0.0 0.00 0.00 0.00 46 1018.1
20260906024045 25 0.0 0.0 0.00 0.00 0.00 46 1018.1
20260906023523 25 0.0 0.0 0.00 0.00 0.00 46 1018.2
20260906023040 25 0.0 0.0 0.00 0.00 0.00 45 1018.1
20260906022543 26 293 0.0 3.2 0.00 0.00 0.00 44 1018.2
20260906022017 25 293 0.0 3.2 0.00 0.00 0.00 43 1018.2
20260906021519 25 293 1.6 4.8 0.00 0.00 0.00 44 1018.2
20260906021027 26 293 1.6 3.2 0.00 0.00 0.00 44 1018.2
20260906020520 26 293 0.0 4.8 0.00 0.00 0.00 44 1018.1
20260906020135 26 0.0 0.0 0.00 0.00 0.00 44 1018.2
20260906015539 26 293 0.0 3.2 0.00 0.00 0.00 44 1018.2
20260906015015 25 0.0 0.0 0.00 0.00 0.00 45 1018.1
20260906014542 25 293 0.0 1.6 0.00 0.00 0.00 46 1018.0
20260906014020 25 0.0 0.0 0.00 0.00 0.00 48 1018.2
20260906013605 26 293 0.0 1.6 0.00 0.00 0.00 48 1018.3
20260906012519 26 0.0 0.0 0.00 0.00 0.00 48 1018.3
20260906012016 26 293 1.6 4.8 0.00 0.00 0.00 49 1018.3
20260906011519 26 293 1.6 4.8 0.00 0.00 0.00 49 1018.2
20260906011020 26 299 1.6 4.8 0.00 0.00 0.00 49 1018.3
20260906010522 26 0.0 0.0 0.00 0.00 0.00 49 1018.3
20260906010138 25 293 1.6 4.8 0.00 0.00 0.00 49 1018.3
20260906005539 25 293 1.6 3.2 0.00 0.00 0.00 51 1018.3
20260906005018 25 0.0 0.0 0.00 0.00 0.00 51 1018.2
20260906004522 25 293 1.6 3.2 0.00 0.00 0.00 52 1018.2
20260906004024 25 293 0.0 3.2 0.00 0.00 0.00 53 1018.2
20260906003541 25 0.0 0.0 0.00 0.00 0.00 53 1018.3
20260906003038 25 303 0.0 4.8 0.00 0.00 0.00 52 1018.3
20260906002521 25 325 3.2 4.8 0.00 0.00 0.00 53 1018.3
20260906002026 25 338 0.0 4.8 0.00 0.00 0.00 55 1018.3
20260906001541 25 0 0.0 1.6 0.00 0.00 0.00 56 1018.3
20260906001015 25 0 0.0 3.2 0.00 0.00 0.00 56 1018.4
20260906000604 25 322 4.8 9.7 0.00 0.00 0.00 56 1018.4
20260906000137 25 293 1.6 6.4 0.00 0.00 0.00 56 1018.4
20260905235516 25 303 1.6 4.8 0.00 0.00 0.00 58 1018.5
20260905235016 25 315 0.0 3.2 0.00 0.00 0.00 58 1018.5
20260905234519 25 0 0.0 3.2 0.00 0.00 0.00 59 1018.6
20260905234041 25 301 1.6 6.4 0.00 0.00 0.00 61 1018.5
20260905233521 25 299 1.6 6.4 0.00 0.00 0.00 63 1018.5
20260905233021 25 0.0 0.0 0.00 0.00 0.00 64 1018.5
20260905232523 25 293 0.0 3.2 0.00 0.00 0.00 65 1018.7
20260905232022 25 0.0 0.0 0.00 0.00 0.00 65 1018.7
20260905231525 25 300 1.6 4.8 0.00 0.00 0.00 65 1018.7
20260905231025 25 0.0 0.0 0.00 0.00 0.00 64 1018.7
20260905230515 25 23 0.0 1.6 0.00 0.00 0.00 63 1018.6
20260905230018 25 91 0.0 3.2 0.00 0.00 0.00 63 1018.6
20260905225517 25 170 3.2 8.0 0.00 0.00 0.00 62 1018.6
20260905225020 25 329 1.6 4.8 0.00 0.00 0.00 63 1018.7
20260905224520 25 293 1.6 6.4 0.00 0.00 0.00 63 1018.8
20260905224019 25 324 1.6 8.0 0.00 0.00 0.00 65 1019.0
20260905223515 25 279 1.6 4.8 0.00 0.00 0.00 67 1019.0
20260905223017 25 338 1.6 4.8 0.00 0.00 0.00 69 1019.0
20260905222521 25 0.0 0.0 0.00 0.00 0.00 69 1019.0
20260905222021 25 310 1.6 6.4 0.00 0.00 0.00 70 1018.9
20260905221522 25 302 3.2 6.4 0.00 0.00 0.00 70 1018.9
20260905221021 25 293 1.6 4.8 0.00 0.00 0.00 70 1018.9
20260905220520 25 0.0 0.0 0.00 0.00 0.00 70 1018.8
20260905220022 25 315 1.6 4.8 0.00 0.00 0.00 70 1018.8
20260905215521 25 0.0 0.0 0.00 0.00 0.00 70 1019.0
20260905215021 25 315 0.0 3.2 0.00 0.00 0.00 70 1019.0
20260905214525 25 0.0 0.0 0.00 0.00 0.00 70 1019.0
20260905214024 25 0.0 0.0 0.00 0.00 0.00 71 1019.0
20260905213516 25 0.0 0.0 0.00 0.00 0.00 71 1018.9
20260905213017 25 0.0 0.0 0.00 0.00 0.00 71 1019.0
20260905212519 25 338 0.0 3.2 0.00 0.00 0.00 71 1019.0
20260905212017 25 338 1.6 6.4 0.00 0.00 0.00 71 1018.9
20260905211524 25 323 1.6 6.4 0.00 0.00 0.00 71 1019.1
20260905211057 25 342 1.6 9.7 0.00 0.00 0.00 71 1019.0
20260905210520 25 345 3.2 9.7 0.00 0.00 0.00 70 1019.1
20260905210020 25 0 0.0 3.2 0.00 0.00 0.00 70 1019.1
20260905205520 25 334 1.6 6.4 0.00 0.00 0.00 70 1019.0
20260905205017 25 0.0 0.0 0.00 0.00 0.00 70 1019.0
20260905204522 25 152 0.0 4.8 0.00 0.00 0.00 71 1019.1
20260905204020 25 0.0 0.0 0.00 0.00 0.00 71 1019.1
20260905203524 25 137 1.6 6.4 0.00 0.00 0.00 71 1019.0
20260905203017 25 84 0.0 3.2 0.00 0.00 0.00 70 1019.1
20260905202523 25 134 1.6 4.8 0.00 0.00 0.00 70 1019.0
20260905202022 25 144 1.6 6.4 0.00 0.00 0.00 69 1019.1
20260905201520 25 322 1.6 6.4 0.00 0.00 0.00 69 1019.2
20260905201042 25 316 1.6 6.4 0.00 0.00 0.00 69 1019.1
20260905200541 25 293 0.0 3.2 0.00 0.00 0.00 68 1019.2
20260905200020 25 319 3.2 8.0 0.00 0.00 0.00 68 1019.3
20260905195517 25 0.0 0.0 0.00 0.00 0.00 67 1019.2
20260905195025 25 0.0 0.0 0.00 0.00 0.00 67 1019.2
20260905194540 25 293 1.6 6.4 0.00 0.00 0.00 67 1019.2
20260905194016 25 305 4.8 6.4 0.00 0.00 0.00 66 1019.2
20260905193518 25 285 3.2 6.4 0.00 0.00 0.00 66 1019.1
20260905193022 25 158 0.0 1.6 0.00 0.00 0.00 66 1019.0
20260905192521 25 158 0.0 3.2 0.00 0.00 0.00 66 1019.1
20260905192022 25 331 1.6 4.8 0.00 0.00 0.00 65 1019.0
20260905191520 25 296 6.4 183.5 0.00 0.00 0.00 65 1019.1
20260905191040 25 307 1.6 9.7 0.00 0.00 0.00 64 1019.0
20260905190523 25 338 0.0 3.2 0.00 0.00 0.00 64 1019.0
20260905190023 25 338 1.6 6.4 0.00 0.00 0.00 64 1018.9
20260905185519 25 317 3.2 6.4 0.00 0.00 0.00 64 1018.9
20260905185019 26 346 1.6 4.8 0.00 0.00 0.00 64 1018.8
20260905184525 26 0 0.0 3.2 0.00 0.00 0.00 64 1018.8
20260905184015 26 0 0.0 1.6 0.00 0.00 0.00 63 1018.7
20260905183519 26 0 0.0 1.6 0.00 0.00 0.00 63 1018.9
20260905183024 26 0.0 0.0 0.00 0.00 0.00 63 1018.8
20260905182516 26 0 1.6 9.7 0.00 0.00 0.00 63 1018.7
20260905182019 26 352 4.8 8.0 0.00 0.00 0.00 63 1018.7
20260905181523 26 1 1.6 8.0 0.00 0.00 0.00 63 1018.6
20260905181019 26 23 0.0 4.8 0.00 0.00 0.00 62 1018.7
20260905180516 26 345 3.2 8.0 0.00 0.00 0.00 62 1018.7
20260905180036 26 325 1.6 9.7 0.00 0.00 0.00 62 1018.7
20260905175521 26 48 1.6 8.0 0.00 0.00 0.00 63 1018.6
20260905175050 26 93 1.6 6.4 0.00 0.00 0.00 63 1018.6
20260905174544 26 80 1.6 6.4 0.00 0.00 0.00 62 1018.6
20260905174021 26 125 1.6 8.0 0.00 0.00 0.00 62 1018.7
20260905173518 26 23 0.0 3.2 0.00 0.00 0.00 61 1018.6
20260905173020 27 33 1.6 4.8 0.00 0.00 0.00 59 1018.6
20260905173017 26 124 3.2 9.7 0.00 0.00 0.00 61 1018.6
20260905172517 27 33 1.6 4.8 0.00 0.00 0.00 59 1018.6
20260905172022 27 0 0.0 4.8 0.00 0.00 0.00 58 1018.5
20260905171515 27 340 1.6 8.0 0.00 0.00 0.00 57 1018.6
20260905171024 27 180 1.6 4.8 0.00 0.00 0.00 56 1018.7
20260905171021 27 176 0.0 4.8 0.00 0.00 0.00 56 1018.6
20260905170535 27 176 0.0 4.8 0.00 0.00 0.00 56 1018.6
20260905170521 27 176 0.0 4.8 0.00 0.00 0.00 56 1018.6
20260905170020 27 135 0.0 3.2 0.00 0.00 0.00 55 1018.6
20260905170016 27 135 0.0 3.2 0.00 0.00 0.00 55 1018.6
20260905165521 27 237 1.6 6.4 0.00 0.00 0.00 53 1018.5
20260905165517 27 136 3.2 8.0 0.00 0.00 0.00 54 1018.5
20260905165024 27 237 1.6 6.4 0.00 0.00 0.00 53 1018.5
20260905164537 28 123 0.0 3.2 0.00 0.00 0.00 52 1018.5
20260905164020 28 150 0.0 4.8 0.00 0.00 0.00 51 1018.6
20260905163525 28 167 1.6 6.4 0.00 0.00 0.00 50 1018.6
20260905163520 28 125 1.6 6.4 0.00 0.00 0.00 49 1018.5
20260905163101 28 125 1.6 6.4 0.00 0.00 0.00 49 1018.5
20260905162520 28 319 1.6 6.4 0.00 0.00 0.00 49 1018.4
20260905162518 28 338 0.0 4.8 0.00 0.00 0.00 49 1018.5
20260905162020 28 319 1.6 6.4 0.00 0.00 0.00 49 1018.4
20260905162016 28 319 1.6 6.4 0.00 0.00 0.00 49 1018.4
20260905161517 28 295 3.2 9.7 0.00 0.00 0.00 48 1018.4
20260905161035 28 30 3.2 9.7 0.00 0.00 0.00 49 1018.5
20260905160524 28 210 3.2 9.7 0.00 0.00 0.00 49 1018.7
20260905160521 28 158 1.6 8.0 0.00 0.00 0.00 49 1018.6
20260905160041 28 158 1.6 8.0 0.00 0.00 0.00 49 1018.6
20260905155515 28 354 3.2 8.0 0.00 0.00 0.00 49 1018.6
20260905155019 29 337 4.8 9.7 0.00 0.00 0.00 49 1018.5
20260905154522 29 306 3.2 9.7 0.00 0.00 0.00 48 1018.6
20260905154021 29 69 0.0 3.2 0.00 0.00 0.00 47 1018.5
20260905153521 29 239 1.6 11.3 0.00 0.00 0.00 45 1018.8
20260905153025 29 239 1.6 11.3 0.00 0.00 0.00 45 1018.8
20260905153020 29 299 4.8 11.3 0.00 0.00 0.00 45 1018.7
20260905152520 29 47 3.2 9.7 0.00 0.00 0.00 44 1018.7
20260905152022 30 359 4.8 9.7 0.00 0.00 0.00 43 1018.7
20260905152020 29 47 3.2 9.7 0.00 0.00 0.00 44 1018.7
20260905151527 30 359 4.8 9.7 0.00 0.00 0.00 43 1018.7
20260905151520 30 343 1.6 8.0 0.00 0.00 0.00 43 1018.6
20260905151046 30 343 1.6 8.0 0.00 0.00 0.00 43 1018.6
20260905150538 30 339 3.2 11.3 0.00 0.00 0.00 43 1018.6
20260905150045 30 336 4.8 9.7 0.00 0.00 0.00 43 1018.6
20260905145519 30 2 6.4 12.9 0.00 0.00 0.00 42 1018.6
20260905145019 30 357 6.4 17.7 0.00 0.00 0.00 41 1018.6
20260905144523 30 348 4.8 12.9 0.00 0.00 0.00 41 1018.5
20260905144041 30 352 8.0 27.4 0.00 0.00 0.00 41 1018.5
20260905143516 30 357 4.8 11.3 0.00 0.00 0.00 39 1018.6
20260905143019 30 0 12.9 27.4 0.00 0.00 0.00 39 1018.7
20260905142522 30 342 6.4 17.7 0.00 0.00 0.00 41 1018.7
20260905142025 30 347 6.4 14.5 0.00 0.00 0.00 39 1018.8
20260905142021 30 103 3.2 12.9 0.00 0.00 0.00 39 1018.7
20260905141523 30 103 3.2 12.9 0.00 0.00 0.00 39 1018.7
20260905141021 30 58 3.2 11.3 0.00 0.00 0.00 39 1018.8
20260905140515 30 210 0.0 8.0 0.00 0.00 0.00 39 1018.8
20260905140020 30 318 6.4 11.3 0.00 0.00 0.00 38 1018.8
20260905135516 30 349 6.4 16.1 0.00 0.00 0.00 38 1018.7
20260905135020 31 355 4.8 9.7 0.00 0.00 0.00 38 1018.7
20260905134516 31 274 1.6 6.4 0.00 0.00 0.00 37 1018.7
20260905134018 31 310 4.8 11.3 0.00 0.00 0.00 37 1018.7
20260905133526 31 342 8.0 12.9 0.00 0.00 0.00 36 1018.8
20260905133015 31 328 9.7 16.1 0.00 0.00 0.00 36 1018.9
20260905132524 31 338 9.7 14.5 0.00 0.00 0.00 36 1018.9
20260905132025 31 345 3.2 16.1 0.00 0.00 0.00 37 1019.0
20260905131520 31 317 1.6 9.7 0.00 0.00 0.00 37 1019.0
20260905131026 31 343 3.2 9.7 0.00 0.00 0.00 36 1019.0
20260905130520 31 8 3.2 9.7 0.00 0.00 0.00 37 1019.1
20260905130022 31 276 6.4 14.5 0.00 0.00 0.00 37 1019.1
20260905125523 31 12 3.2 9.7 0.00 0.00 0.00 38 1019.0
20260905125022 31 317 4.8 12.9 0.00 0.00 0.00 37 1019.2
20260905124521 31 347 4.8 12.9 0.00 0.00 0.00 40 1019.1
20260905124036 31 347 4.8 12.9 0.00 0.00 0.00 40 1019.1
20260905123542 31 3 1.6 11.3 0.00 0.00 0.00 40 1019.3
20260905123021 32 326 3.2 8.0 0.00 0.00 0.00 39 1019.2
20260905122517 32 326 3.2 8.0 0.00 0.00 0.00 39 1019.2
20260905122045 32 76 3.2 9.7 0.00 0.00 0.00 41 1019.2
20260905122020 32 68 3.2 6.4 0.00 0.00 0.00 41 1019.3
20260905121518 32 68 3.2 6.4 0.00 0.00 0.00 41 1019.3
20260905121015 32 82 4.8 9.7 0.00 0.00 0.00 41 1019.3
20260905120521 32 18 6.4 17.7 0.00 0.00 0.00 40 1019.4
20260905120122 32 351 6.4 12.9 0.00 0.00 0.00 39 1019.3
20260905115515 32 44 3.2 9.7 0.00 0.00 0.00 37 1019.3
20260905115022 32 101 3.2 11.3 0.00 0.00 0.00 38 1019.4
20260905114600 32 22 4.8 17.7 0.00 0.00 0.00 39 1019.5
20260905114039 32 72 4.8 11.3 0.00 0.00 0.00 38 1019.5
20260905113518 32 14 6.4 11.3 0.00 0.00 0.00 36 1019.5
20260905113015 32 347 3.2 12.9 0.00 0.00 0.00 37 1019.6
20260905112546 32 16 4.8 16.1 0.00 0.00 0.00 39 1019.5
20260905112022 32 127 4.8 8.0 0.00 0.00 0.00 39 1019.5
20260905111517 32 22 4.8 9.7 0.00 0.00 0.00 37 1019.5
20260905111026 32 358 6.4 17.7 0.00 0.00 0.00 37 1019.6
20260905110519 32 350 4.8 12.9 0.00 0.00 0.00 39 1019.6
20260905110028 32 42 3.2 11.3 0.00 0.00 0.00 39 1019.5
20260905105519 32 71 4.8 9.7 0.00 0.00 0.00 41 1019.5
20260905105022 32 36 3.2 9.7 0.00 0.00 0.00 41 1019.5
20260905104539 32 78 6.4 14.5 0.00 0.00 0.00 42 1019.4
20260905104042 31 29 4.8 11.3 0.00 0.00 0.00 44 1019.3
20260905103521 31 109 6.4 11.3 0.00 0.00 0.00 47 1019.4
20260905103024 31 55 6.4 14.5 0.00 0.00 0.00 54 1019.6
20260905102515 31 146 9.7 19.3 0.00 0.00 0.00 52 1019.5
20260905102023 31 125 6.4 14.5 0.00 0.00 0.00 54 1019.5
20260905101535 30 139 6.4 12.9 0.00 0.00 0.00 54 1019.7
20260905101025 30 130 8.0 12.9 0.00 0.00 0.00 55 1019.6
20260905100523 30 146 8.0 11.3 0.00 0.00 0.00 56 1019.6
20260905100059 30 134 9.7 14.5 0.00 0.00 0.00 56 1019.6
20260905095525 30 142 8.0 14.5 0.00 0.00 0.00 57 1019.6
20260905095022 30 151 8.0 16.1 0.00 0.00 0.00 59 1019.8
20260905094517 30 160 11.3 16.1 0.00 0.00 0.00 59 1019.8
20260905094018 30 127 8.0 14.5 0.00 0.00 0.00 59 1019.8
20260905093525 29 142 8.0 14.5 0.00 0.00 0.00 60 1019.8
20260905093023 29 140 8.0 14.5 0.00 0.00 0.00 60 1019.8
20260905092525 29 138 8.0 17.7 0.00 0.00 0.00 60 1019.8
20260905092045 29 132 11.3 19.3 0.00 0.00 0.00 60 1019.8
20260905091519 30 142 8.0 19.3 0.00 0.00 0.00 59 1019.9
20260905091024 30 74 3.2 11.3 0.00 0.00 0.00 58 1019.9
20260905090545 29 121 8.0 20.9 0.00 0.00 0.00 58 1020.0
20260905090017 29 74 4.8 9.7 0.00 0.00 0.00 59 1020.0
20260905085519 29 48 4.8 9.7 0.00 0.00 0.00 60 1020.2
20260905085021 29 26 6.4 12.9 0.00 0.00 0.00 59 1020.2
20260905084515 29 68 6.4 16.1 0.00 0.00 0.00 62 1020.1
20260905084016 29 130 8.0 16.1 0.00 0.00 0.00 61 1020.0
20260905083519 29 36 4.8 9.7 0.00 0.00 0.00 61 1019.9
20260905083016 29 127 8.0 17.7 0.00 0.00 0.00 61 1019.8
20260905082517 29 105 6.4 14.5 0.00 0.00 0.00 61 1019.8
20260905082026 30 132 8.0 12.9 0.00 0.00 0.00 60 1019.9
20260905081545 29 24 4.8 9.7 0.00 0.00 0.00 61 1020.2
20260905081017 28 11 8.0 14.5 0.00 0.00 0.00 63 1019.8
20260905080526 28 133 8.0 19.3 0.00 0.00 0.00 62 1019.8